Temp
-16 -15 -15 -15 -15 -16 -16 -16 -16 -16 -16 -15 -16 -16 -16 -16 -16 -16 -16 -17 -17 -17 -17 -17 -17 -17 -17 -17 -17 -17 -17 -18 -17 -17 -17 -17 -17 -17 -17 -16 -17 -16 -16 -15
-16 -16 -16 -16 -16 -16 -16 -16 -16 -16 -16 -16 -16 -16 -16 -16 -17 -17 -17 -17 -17 -17 -17 -17 -17 -17 -17 -17 -17 -18 -18 -18 -17 -17 -17 -17 -17 -17 -17 -16 -17 -17 -17 -14
-16 -16 -16 -16 -16 -16 -16 -16 -16 -16 -16 -16 -16 -17 -17 -17 -17 -17 -17 -17 -17 -17 -17 -17 -18 -18 -17 -17 -17 -17 -18 -18 -18 -18 -18 -17 -17 -18 -18 -17 -17 -18 -17 -16
-16 -16 -16 -16 -16 -16 -16 -16 -16 -16 -16 -17 -17 -17 -17 -17 -17 -17 -17 -17 -17 -17 -18 -18 -18 -18 -18 -18 -18 -18 -18 -18 -18 -18 -18 -18 -18 -18 -19 -19 -18 -17 -17 -17
-17 -16 -16 -16 -16 -16 -16 -16 -16 -17 -17 -17 -17 -17 -17 -18 -18 -18 -18 -18 -18 -18 -18 -18 -18 -18 -18 -18 -18 -18 -18 -18 -18 -18 -18 -18 -18 -18 -18 -18 -19 -19 -19 -17
-17 -17 -17 -16 -17 -16 -16 -17 -17 -17 -17 -17 -17 -18 -17 -18 -18 -18 -18 -18 -18 -18 -18 -18 -18 -19 -19 -19 -19 -19 -19 -19 -19 -19 -19 -19 -19 -19 -19 -19 -20 -21 -21 -20
-17 -17 -17 -17 -17 -17 -17 -17 -17 -17 -17 -18 -18 -18 -18 -17 -18 -18 -18 -18 -18 -18 -18 -18 -19 -19 -19 -19 -19 -19 -19 -19 -19 -19 -19 -20 -20 -20 -20 -21 -21 -22 -22 -22
-17 -17 -17 -17 -17 -17 -17 -17 -17 -18 -18 -18 -18 -18 -18 -18 -19 -18 -19 -19 -19 -19 -19 -19 -19 -19 -19 -19 -19 -19 -19 -19 -19 -20 -20 -21 -21 -22 -23 -22 -22 -22 -22 -22
-17 -18 -17 -17 -17 -18 -18 -18 -18 -18 -18 -18 -18 -18 -18 -18 -18 -19 -19 -19 -19 -19 -19 -19 -19 -19 -19 -19 -20 -19 -19 -20 -20 -20 -21 -22 -23 -23 -23 -23 -23 -22 -22 -22
-18 -17 -18 -18 -17 -18 -18 -18 -18 -18 -18 -18 -18 -18 -18 -18 -19 -19 -19 -19 -19 -20 -20 -19 -20 -20 -20 -20 -20 -20 -20 -20 -20 -21 -22 -24 -24 -24 -23 -23 -23 -22 -22 -22
-18 -18 -18 -18 -18 -18 -18 -18 -19 -18 -18 -19 -19 -19 -19 -19 -19 -19 -19 -20 -20 -20 -20 -20 -20 -20 -20 -21 -20 -20 -20 -20 -21 -22 -23 -24 -24 -24 -23 -23 -23 -23 -23 -22
-18 -18 -18 -17 -18 -18 -18 -19 -19 -19 -19 -19 -19 -19 -19 -19 -19 -20 -20 -20 -20 -20 -20 -20 -20 -21 -21 -21 -21 -21 -21 -21 -21 -22 -24 -25 -24 -24 -25 -24 -24 -23 -23 -22
-19 -18 -18 -17 -18 -18 -19 -19 -19 -19 -19 -19 -19 -19 -19 -19 -20 -20 -20 -20 -21 -21 -21 -21 -21 -21 -21 -21 -22 -22 -21 -22 -22 -23 -24 -25 -25 -24 -25 -25 -24 -24 -23 -23
-18 -18 -18 -18 -18 -19 -19 -19 -19 -19 -20 -20 -20 -20 -20 -20 -20 -20 -21 -21 -21 -21 -21 -21 -21 -22 -22 -22 -22 -22 -22 -23 -23 -24 -25 -25 -25 -25 -25 -24 -25 -25 -24 -24
-19 -19 -18 -18 -19 -19 -19 -19 -19 -20 -20 -20 -20 -20 -20 -20 -20 -21 -21 -21 -21 -21 -21 -22 -22 -22 -23 -23 -23 -23 -23 -23 -24 -25 -26 -26 -26 -26 -25 -25 -25 -25 -25 -25
-19 -19 -18 -19 -20 -20 -20 -20 -20 -20 -21 -20 -20 -20 -20 -20 -21 -21 -21 -22 -22 -22 -22 -22 -22 -23 -23 -23 -24 -24 -24 -24 -25 -25 -26 -27 -27 -26 -26 -25 -25 -25 -25 -25
-20 -19 -20 -20 -20 -20 -20 -20 -20 -21 -21 -20 -20 -20 -20 -21 -21 -21 -22 -22 -22 -22 -23 -23 -23 -23 -24 -24 -24 -24 -25 -25 -26 -26 -27 -27 -27 -27 -27 -26 -26 -25 -25 -25
-20 -20 -20 -21 -21 -20 -20 -20 -20 -21 -21 -20 -20 -20 -21 -21 -22 -22 -23 -23 -23 -23 -23 -23 -24 -24 -24 -25 -25 -25 -25 -26 -26 -27 -28 -28 -28 -28 -27 -27 -27 -26 -26 -25
-21 -21 -21 -21 -21 -21 -21 -21 -21 -21 -21 -21 -21 -21 -21 -22 -22 -23 -23 -23 -23 -24 -24 -24 -24 -25 -25 -25 -25 -26 -26 -27 -27 -28 -29 -28 -28 -28 -28 -27 -27 -27 -26 -26
-21 -21 -21 -21 -21 -21 -21 -21 -21 -21 -21 -21 -21 -22 -22 -23 -23 -23 -24 -24 -24 -24 -24 -25 -25 -25 -25 -26 -26 -27 -27 -28 -28 -29 -29 -29 -29 -29 -28 -28 -28 -27 -27 -27
-22 -22 -21 -21 -22 -22 -21 -21 -21 -21 -21 -22 -22 -22 -23 -24 -24 -24 -24 -25 -25 -25 -25 -25 -26 -26 -26 -27 -27 -27 -28 -28 -29 -30 -29 -29 -29 -29 -29 -28 -28 -28 -28 -27
-22 -22 -22 -22 -21 -22 -22 -22 -22 -22 -22 -23 -23 -23 -24 -24 -25 -25 -25 -25 -26 -26 -26 -26 -26 -26 -27 -27 -28 -28 -29 -29 -30 -30 -30 -30 -30 -29 -29 -29 -29 -29 -29 -28
-22 -22 -22 -22 -22 -22 -22 -22 -22 -22 -23 -24 -24 -24 -25 -25 -25 -26 -26 -26 -26 -26 -27 -27 -27 -27 -27 -28 -28 -29 -29 -30 -31 -30 -30 -30 -30 -30 -30 -29 -29 -29 -29 -29
-22 -22 -22 -22 -22 -22 -23 -23 -23 -24 -24 -24 -25 -25 -26 -26 -26 -26 -27 -27 -27 -27 -27 -27 -28 -28 -28 -29 -29 -30 -30 -31 -31 -31 -31 -31 -31 -30 -30 -30 -30 -30 -30 -30
-22 -22 -22 -23 -23 -23 -23 -23 -24 -24 -25 -25 -26 -26 -27 -27 -27 -27 -27 -27 -28 -28 -28 -28 -28 -28 -29 -29 -30 -31 -31 -31 -31 -31 -31 -31 -31 -31 -31 -30 -30 -30 -30 -30
-23 -23 -24 -24 -24 -24 -24 -25 -25 -26 -26 -26 -27 -27 -28 -28 -28 -28 -28 -28 -28 -28 -28 -29 -29 -29 -30 -30 -31 -31 -32 -32 -32 -32 -32 -32 -32 -31 -31 -31 -31 -31 -31 -31
-24 -24 -24 -24 -25 -25 -26 -26 -26 -27 -27 -27 -28 -28 -29 -29 -29 -28 -28 -28 -29 -29 -29 -29 -29 -30 -30 -31 -31 -32 -32 -32 -32 -32 -32 -32 -32 -32 -32 -32 -32 -32 -31 -31
Height
5725 5728 5730 5732 5734 5734 5735 5736 5736 5735 5734 5732 5733 5732 5730 5729 5727 5724 5721 5717 5715 5712 5707 5702 5697 5692 5686 5679 5672 5666 5660 5654 5648 5643 5642 5640 5638 5637 5638 5637 5635 5638 5640 5642
5721 5723 5724 5726 5727 5728 5728 5728 5728 5728 5727 5725 5724 5724 5722 5721 5719 5716 5713 5709 5706 5703 5699 5695 5690 5685 5679 5673 5666 5659 5652 5646 5640 5637 5631 5626 5622 5620 5619 5621 5619 5620 5619 5621
5714 5716 5718 5720 5720 5720 5721 5721 5720 5720 5719 5718 5717 5717 5715 5714 5712 5709 5706 5702 5698 5695 5691 5687 5683 5678 5671 5665 5659 5652 5645 5639 5632 5625 5619 5615 5609 5605 5602 5600 5597 5599 5601 5603
5707 5709 5711 5714 5713 5714 5714 5714 5713 5712 5711 5710 5710 5710 5708 5706 5703 5701 5699 5695 5691 5687 5684 5679 5675 5669 5663 5657 5650 5643 5636 5629 5622 5615 5609 5602 5595 5588 5583 5583 5583 5584 5580 5579
5699 5702 5705 5706 5706 5707 5707 5707 5705 5704 5703 5702 5702 5701 5698 5699 5695 5693 5691 5688 5684 5680 5676 5671 5666 5661 5655 5649 5642 5635 5627 5619 5612 5604 5597 5589 5582 5575 5567 5564 5564 5561 5558 5560
5692 5694 5696 5699 5699 5700 5700 5700 5698 5696 5695 5694 5694 5693 5686 5690 5686 5685 5682 5679 5675 5671 5667 5662 5657 5652 5646 5640 5634 5626 5617 5609 5601 5592 5584 5576 5568 5560 5555 5551 5547 5546 5544 5541
5683 5685 5688 5692 5692 5693 5694 5695 5690 5689 5688 5687 5686 5684 5680 5678 5676 5675 5672 5670 5666 5662 5658 5654 5648 5643 5637 5632 5624 5616 5608 5599 5590 5580 5571 5563 5554 5544 5537 5531 5527 5525 5527 5529
5674 5676 5681 5683 5684 5687 5687 5685 5684 5682 5681 5679 5677 5675 5673 5670 5668 5666 5664 5661 5658 5653 5649 5645 5640 5635 5628 5621 5615 5606 5597 5588 5580 5569 5559 5548 5538 5530 5523 5519 5518 5516 5516 5517
5668 5671 5671 5673 5676 5677 5677 5677 5676 5674 5672 5670 5668 5667 5664 5661 5659 5657 5655 5652 5648 5644 5640 5636 5631 5625 5619 5612 5606 5598 5587 5577 5568 5557 5546 5535 5525 5517 5511 5506 5504 5504 5504 5505
5658 5660 5662 5664 5667 5668 5668 5668 5668 5665 5663 5661 5659 5657 5655 5652 5650 5647 5645 5643 5640 5636 5632 5627 5621 5615 5610 5603 5596 5588 5578 5568 5557 5546 5535 5525 5514 5506 5501 5497 5494 5493 5492 5493
5648 5651 5653 5655 5658 5658 5658 5659 5658 5657 5655 5652 5650 5648 5645 5643 5641 5638 5635 5633 5630 5626 5622 5617 5612 5607 5601 5594 5586 5578 5569 5559 5548 5536 5526 5517 5507 5498 5494 5488 5485 5484 5483 5482
5639 5639 5643 5646 5648 5648 5649 5649 5648 5647 5646 5643 5640 5638 5635 5633 5631 5629 5626 5623 5620 5617 5613 5608 5603 5597 5590 5583 5576 5568 5559 5550 5539 5528 5518 5510 5502 5494 5484 5481 5478 5475 5473 5471
5626 5630 5633 5636 5637 5637 5638 5638 5638 5638 5635 5633 5630 5628 5626 5623 5621 5619 5616 5614 5611 5607 5602 5598 5592 5586 5580 5573 5566 5558 5549 5540 5530 5520 5510 5502 5495 5489 5484 5476 5472 5468 5465 5462
5614 5621 5622 5624 5626 5627 5627 5628 5628 5626 5625 5623 5620 5618 5616 5613 5611 5609 5607 5604 5601 5597 5592 5588 5582 5576 5570 5564 5557 5548 5539 5529 5520 5510 5503 5495 5488 5481 5476 5472 5469 5465 5460 5456
5605 5609 5611 5613 5616 5618 5617 5618 5617 5616 5615 5613 5610 5608 5605 5603 5601 5598 5597 5594 5591 5587 5583 5577 5572 5567 5561 5555 5547 5539 5531 5522 5512 5503 5495 5488 5481 5474 5468 5464 5461 5458 5455 5451
5593 5596 5599 5603 5606 5606 5607 5607 5606 5605 5603 5602 5600 5598 5595 5593 5590 5588 5586 5584 5581 5577 5573 5568 5563 5558 5552 5546 5538 5530 5521 5512 5503 5495 5488 5481 5474 5469 5462 5457 5453 5450 5447 5444
5582 5586 5588 5591 5593 5595 5596 5595 5594 5593 5592 5590 5589 5587 5584 5582 5580 5578 5576 5574 5571 5568 5563 5559 5554 5548 5543 5537 5530 5522 5513 5504 5495 5487 5480 5474 5468 5462 5456 5450 5445 5442 5439 5436
5571 5573 5576 5579 5581 5582 5584 5583 5582 5581 5579 5578 5577 5575 5573 5571 5569 5567 5566 5564 5561 5558 5554 5549 5544 5539 5533 5527 5520 5512 5504 5495 5487 5479 5472 5466 5461 5456 5450 5444 5439 5435 5431 5428
5560 5562 5563 5565 5568 5570 5571 5571 5571 5568 5568 5567 5565 5563 5562 5560 5558 5557 5556 5554 5551 5547 5544 5539 5534 5529 5523 5517 5510 5502 5494 5485 5477 5470 5464 5459 5454 5449 5444 5438 5433 5429 5424 5421
5546 5549 5551 5553 5555 5557 5558 5558 5558 5557 5556 5554 5553 5552 5550 5549 5548 5547 5546 5543 5539 5537 5533 5528 5523 5518 5513 5507 5500 5492 5484 5476 5468 5462 5456 5451 5447 5442 5438 5433 5428 5423 5419 5414
5533 5536 5537 5539 5543 5544 5544 5545 5545 5545 5543 5542 5542 5541 5540 5539 5538 5537 5535 5532 5529 5526 5522 5517 5513 5508 5503 5497 5490 5482 5475 5467 5459 5454 5448 5444 5440 5436 5431 5427 5423 5418 5414 5410
5520 5523 5524 5526 5529 5531 5532 5533 5533 5533 5532 5530 5530 5530 5529 5529 5528 5526 5524 5522 5518 5515 5511 5507 5502 5498 5493 5487 5480 5472 5465 5457 5451 5446 5441 5437 5433 5429 5425 5421 5417 5413 5409 5405
5506 5509 5511 5514 5516 5518 5518 5519 5520 5520 5519 5519 5519 5518 5518 5517 5516 5515 5513 5511 5508 5504 5501 5497 5492 5488 5482 5476 5469 5462 5455 5449 5444 5439 5435 5431 5427 5423 5420 5416 5412 5409 5405 5401
5493 5496 5498 5500 5503 5505 5507 5507 5506 5506 5507 5508 5507 5507 5507 5506 5505 5504 5502 5499 5497 5494 5490 5486 5482 5477 5471 5465 5459 5452 5446 5441 5436 5432 5428 5425 5421 5417 5414 5411 5408 5404 5401 5397
5480 5483 5485 5488 5490 5492 5493 5493 5494 5495 5496 5495 5496 5496 5496 5496 5494 5493 5491 5488 5486 5483 5479 5475 5470 5465 5460 5454 5448 5442 5437 5433 5429 5426 5422 5418 5415 5412 5409 5406 5403 5400 5397 5394
5468 5471 5473 5475 5476 5478 5480 5481 5483 5483 5484 5485 5486 5485 5485 5484 5483 5482 5480 5477 5474 5471 5467 5462 5459 5453 5448 5442 5436 5432 5428 5425 5422 5419 5416 5412 5409 5406 5403 5400 5397 5395 5392 5389
5456 5458 5461 5464 5465 5467 5469 5470 5471 5473 5474 5474 5475 5475 5474 5473 5472 5470 5468 5465 5462 5458 5455 5451 5447 5442 5436 5431 5425 5422 5419 5416 5414 5411 5409 5406 5403 5401 5398 5395 5392 5389 5387 5384
Wind_Speed
22 20 19 17 16 16 18 20 21 22 24 26 23 23 23 22 22 24 25 26 28 29 29 30 32 34 36 37 38 39 40 42 42 39 42 55 57 57 58 61 63 64 77 83
23 19 15 13 12 12 13 16 18 21 23 27 26 27 26 23 23 25 27 29 30 32 32 31 33 35 36 37 39 40 41 42 42 40 44 45 54 60 58 58 64 65 71 76
23 19 15 11 13 14 15 16 18 21 24 26 28 28 28 26 25 26 27 29 31 33 33 33 34 35 37 38 40 42 44 44 44 45 46 45 46 48 48 53 56 60 64 65
23 21 19 14 15 16 16 17 19 22 24 25 28 29 30 28 27 28 28 29 31 33 33 35 35 36 38 39 41 44 46 47 47 47 47 50 51 53 51 49 54 66 65 62
27 22 20 18 19 17 18 19 20 21 23 25 26 27 32 26 29 29 29 29 31 32 34 35 35 37 39 39 42 44 46 47 48 50 52 53 52 52 56 57 55 55 58 68
28 25 23 19 21 19 21 20 22 23 24 25 26 28 34 25 29 29 30 30 31 33 35 36 36 38 40 41 43 45 47 49 51 52 52 54 55 55 54 54 53 50 47 54
31 29 27 20 22 20 21 22 23 25 26 26 25 27 30 29 30 30 30 31 32 34 36 35 37 39 41 42 44 46 49 52 53 55 56 58 57 57 55 53 53 50 45 43
35 32 27 25 24 23 22 24 26 27 27 28 28 27 27 29 29 31 31 31 33 35 36 36 38 40 42 43 46 47 50 53 55 57 60 58 56 53 50 48 45 44 45 43
35 31 31 28 26 25 24 25 26 28 29 27 29 28 27 28 29 31 31 32 34 36 36 38 39 41 42 44 46 48 51 53 56 59 59 56 51 48 45 42 39 39 38 38
37 35 33 31 28 28 28 27 27 30 33 32 30 30 30 29 30 31 32 33 35 36 37 39 40 42 43 44 47 49 51 54 57 59 55 51 47 44 41 38 36 36 35 33
37 37 36 33 31 32 31 30 31 32 35 34 31 30 30 31 31 33 34 35 36 37 38 39 41 42 43 44 47 50 52 54 57 58 53 47 44 42 38 37 34 30 30 33
36 38 38 35 32 35 34 32 34 35 37 36 33 32 31 32 33 34 36 36 37 38 39 40 41 43 44 45 48 50 53 54 56 56 49 45 40 37 37 33 31 30 30 32
40 39 37 35 36 37 35 36 36 37 38 37 34 34 34 34 34 36 36 37 37 39 40 41 42 43 44 46 49 52 53 55 56 54 48 43 39 36 29 30 30 30 30 30
41 37 37 38 39 36 37 38 38 39 37 38 37 37 37 36 36 37 37 37 38 39 41 41 43 43 44 46 49 52 53 55 55 51 45 42 39 36 31 28 23 23 27 29
41 40 42 42 40 38 39 39 40 40 38 40 41 40 39 38 37 37 37 37 39 41 41 42 43 43 43 45 48 51 52 53 53 49 44 41 40 39 34 30 27 24 22 26
44 47 47 44 40 41 41 40 42 42 41 41 41 41 39 39 38 38 37 38 39 40 41 42 42 42 42 45 47 50 52 53 52 49 43 39 40 39 35 32 29 27 26 25
49 48 47 46 45 43 41 42 43 43 41 41 41 41 40 40 40 39 39 39 40 40 41 41 41 41 42 44 47 50 52 52 51 47 43 39 38 37 37 33 30 29 28 26
49 49 48 46 45 44 43 45 45 44 43 43 42 42 42 41 41 39 39 40 40 40 40 39 40 40 42 44 47 51 52 52 50 45 40 39 38 37 35 35 32 27 27 27
49 49 48 47 46 45 45 46 45 45 44 43 44 43 43 42 41 40 40 40 40 39 39 39 40 40 42 44 48 51 52 52 50 44 39 38 37 36 35 34 33 30 26 26
50 48 48 48 48 47 45 46 45 44 44 44 43 42 42 41 40 40 40 39 39 38 38 39 40 41 42 45 48 51 51 52 48 42 38 37 35 34 33 33 32 31 26 24
49 49 50 49 49 47 47 46 44 43 45 43 43 42 41 41 40 39 38 38 38 37 39 40 41 41 42 46 48 50 51 49 45 40 37 35 33 32 31 31 30 29 27 24
48 49 49 49 49 48 45 44 43 44 43 42 41 41 41 40 38 37 37 36 36 38 40 42 42 42 44 47 48 50 51 45 41 37 35 32 31 29 28 28 26 26 25 24
48 49 49 49 46 44 45 45 43 43 41 40 40 41 39 38 37 36 36 37 37 39 41 42 43 43 45 46 48 51 47 42 38 35 32 29 29 28 26 24 23 23 23 22
49 49 47 45 44 42 42 42 42 41 41 40 41 38 37 37 37 37 37 38 39 41 43 43 43 44 46 46 50 50 41 39 35 32 29 28 27 26 23 22 21 20 20 20
46 44 43 41 40 40 42 42 41 39 38 40 38 37 37 37 37 37 38 40 42 44 44 43 44 46 46 48 52 44 39 36 33 30 27 27 27 24 21 21 20 19 19 20
42 40 38 37 38 39 39 39 37 38 38 36 36 36 36 36 37 38 40 43 44 44 43 44 46 47 47 52 48 40 37 34 31 28 26 26 27 24 21 20 20 19 19 18
39 38 38 38 38 37 36 36 36 35 35 35 35 34 35 37 38 41 42 45 45 44 44 46 46 46 51 49 42 38 34 32 30 27 26 26 26 26 23 22 21 21 20 20
Wind_Direction
209 215 218 225 233 240 247 252 254 257 265 271 269 273 281 284 287 290 299 303 307 310 312 315 316 319 322 323 321 320 316 314 309 302 290 280 279 279 272 255 255 247 256 250
208 209 217 226 240 251 261 267 265 264 262 270 273 278 283 285 288 291 299 303 307 310 311 313 314 317 319 320 321 320 318 315 311 303 297 294 282 277 278 276 273 266 250 245
211 218 228 241 256 272 279 287 287 279 273 272 272 275 280 283 289 291 296 300 303 308 310 312 312 314 316 318 320 321 320 318 315 311 308 300 296 288 280 275 277 269 265 256
220 229 238 246 262 276 290 298 301 291 279 275 273 273 277 282 287 289 293 297 302 305 308 310 311 314 316 319 322 323 322 318 316 311 307 307 302 298 294 288 277 263 267 269
226 235 246 252 263 280 292 299 306 296 286 281 280 279 277 284 284 289 292 296 299 302 307 309 310 314 316 320 323 324 323 321 318 315 311 307 304 298 292 289 283 279 273 268
230 238 246 253 261 276 287 296 300 302 294 286 285 282 281 284 283 288 291 297 299 303 307 309 311 314 315 318 322 326 325 323 320 316 312 309 305 299 293 285 282 278 273 273
233 239 247 254 260 267 281 294 299 306 300 288 287 285 289 289 288 291 294 297 299 303 306 309 311 312 313 317 322 328 328 327 323 319 315 312 307 303 296 288 284 282 280 272
236 243 250 255 260 267 277 280 291 300 302 293 286 288 290 289 289 289 291 293 297 302 305 308 309 310 313 318 323 328 329 329 325 320 317 315 310 303 298 291 284 278 274 272
242 246 251 257 264 270 273 279 288 296 302 294 286 287 290 290 289 288 289 292 297 301 304 307 309 312 315 317 323 328 330 330 327 323 321 318 311 306 302 297 291 285 280 275
239 246 252 256 263 271 274 280 287 294 299 299 290 284 286 290 291 290 290 293 297 299 303 307 310 313 314 318 323 329 331 331 328 325 323 319 314 308 304 300 296 291 285 278
241 245 251 257 261 269 276 280 287 294 295 296 291 285 284 288 290 290 291 294 296 298 303 308 310 312 314 318 324 330 332 331 329 326 325 322 317 312 306 303 298 290 287 287
243 245 248 255 263 269 275 280 286 293 294 295 291 285 284 287 291 292 293 294 295 298 303 306 310 313 315 319 325 330 331 331 329 327 326 323 318 316 310 305 302 301 298 295
242 245 249 256 262 269 275 279 286 292 295 294 293 289 286 287 291 293 292 292 294 299 302 306 310 313 315 319 325 330 331 331 329 328 326 325 321 315 306 308 304 302 301 302
245 245 251 257 261 268 274 279 285 292 292 291 292 290 287 286 290 291 290 291 294 299 302 307 310 312 315 319 324 329 331 330 328 327 325 325 324 322 308 301 299 300 301 303
245 247 253 258 262 267 271 276 284 288 291 289 288 290 285 284 288 289 289 291 294 297 302 306 310 312 313 318 324 328 329 328 327 326 324 323 325 325 314 304 297 301 304 303
244 250 255 259 262 265 270 276 282 287 291 291 289 288 285 284 287 288 289 291 293 297 302 305 308 311 313 317 322 327 328 327 327 325 321 320 320 323 321 310 297 296 300 297
248 253 257 259 261 266 272 276 281 285 290 290 288 287 284 285 286 287 288 290 294 297 301 304 307 310 312 316 321 325 326 326 327 323 318 317 316 319 322 319 308 294 297 299
248 251 255 259 263 266 270 274 279 284 286 289 287 283 281 283 284 285 287 291 293 296 300 304 307 309 311 316 321 324 325 326 325 322 316 314 313 314 318 323 319 306 297 298
249 252 256 259 262 264 269 273 277 279 283 283 283 281 281 281 283 285 288 291 292 297 301 305 307 309 311 315 320 322 323 324 324 320 318 314 313 314 314 318 323 317 304 296
248 251 256 259 261 265 270 272 274 276 279 279 279 277 277 278 281 284 287 289 293 298 302 305 307 309 312 316 319 321 322 323 322 319 317 313 311 311 314 315 317 322 314 306
247 251 255 259 262 266 268 270 272 275 274 274 274 274 275 277 280 283 285 289 293 298 302 304 307 308 311 315 316 319 320 321 318 317 317 312 310 311 313 313 315 316 321 313
248 250 253 257 260 264 267 267 267 269 271 269 270 271 272 275 278 281 285 289 295 300 302 304 305 306 309 314 315 318 321 318 316 315 314 311 310 312 312 313 314 315 319 321
245 248 252 255 260 262 261 263 265 266 266 267 268 269 272 275 278 281 285 291 295 299 303 303 304 306 310 312 316 318 319 313 314 312 310 310 311 311 311 312 315 316 316 320
245 247 251 256 259 258 259 261 263 262 263 265 265 268 271 274 278 282 288 293 297 300 302 302 303 307 311 312 314 318 313 310 311 308 308 311 310 308 308 310 312 316 319 317
246 251 254 255 254 254 255 258 260 261 260 261 266 269 270 274 280 285 290 294 297 300 300 301 304 309 311 312 315 313 307 307 306 304 307 310 308 306 307 307 310 312 316 320
247 250 250 248 249 251 253 255 257 256 259 263 264 267 271 277 283 287 290 294 298 299 300 302 306 309 310 312 313 306 303 302 301 301 305 307 304 302 304 306 308 310 313 315
249 249 247 248 251 253 254 253 255 259 260 262 265 270 276 281 285 289 293 296 298 299 300 303 306 307 310 311 306 301 299 297 295 296 301 303 300 297 298 300 302 304 307 310